When you browse on this site, cookies collect data to enhance your experience and personalize the content and advertising you see.
Visit our Privacy Policy to learn more. By continuing to use the site, you agree to this use of cookies and data.
  • In Romania
  • List of Countries
  • For 7 days
  • Water Temperature
  • Weather Map
  • Weather Widgets
  • user-avatar
    Login

    Hourly Weather Albany

    Today, 6 June, Saturday

    Time Temperature Precipitation Wind Pressure Humidity
    00:00 +14°C° 0 mm 5 mps 765 mmHg 89%
    01:00 +14°C° 0 mm 4 mps 765 mmHg 90%
    02:00 +13°C° 0 mm 4 mps 765 mmHg 90%
    03:00 +13°C° 0 mm 4 mps 765 mmHg 91%
    04:00 +13°C° 0 mm 4 mps 765 mmHg 92%
    05:00 +13°C° 0 mm 4 mps 765 mmHg 93%
    06:00 +13°C° 0 mm 4 mps 764 mmHg 93%
    07:00 +14°C° 0 mm 5 mps 764 mmHg 92%
    08:00 +14°C° 0 mm 5 mps 764 mmHg 90%
    09:00 +15°C° 0 mm 5 mps 764 mmHg 83%
    10:00 +17°C° 0 mm 5 mps 764 mmHg 75%
    11:00 +19°C° 0 mm 5 mps 764 mmHg 68%
    12:00 +20°C° 0 mm 4 mps 763 mmHg 63%
    13:00 +20°C° 0 mm 4 mps 762 mmHg 59%
    14:00 +21°C° 0 mm 4 mps 761 mmHg 54%
    15:00 +20°C° 0 mm 4 mps 761 mmHg 55%
    16:00 +20°C° 0 mm 3 mps 761 mmHg 56%
    17:00 +19°C° 0 mm 3 mps 762 mmHg 57%
    18:00 +19°C° 0 mm 3 mps 762 mmHg 55%
    19:00 +18°C° 0 mm 4 mps 762 mmHg 53%
    20:00 +19°C° 0 mm 4 mps 762 mmHg 47%
    21:00 +19°C° 0 mm 4 mps 762 mmHg 47%
    22:00 +18°C° 0 mm 3 mps 762 mmHg 48%
    23:00 +18°C° 0 mm 2 mps 762 mmHg 48%

    Tomorrow, 7 June, Sunday

    Time Temperature Precipitation Wind Pressure Humidity
    00:00 +18°C° 0 mm 2 mps 761 mmHg 48%
    01:00 +18°C° 0 mm 2 mps 761 mmHg 48%
    02:00 +18°C° 0 mm 2 mps 761 mmHg 49%
    03:00 +18°C° 0 mm 3 mps 761 mmHg 49%
    04:00 +18°C° 0 mm 3 mps 761 mmHg 49%
    05:00 +17°C° 0 mm 3 mps 761 mmHg 50%
    06:00 +17°C° 0 mm 3 mps 761 mmHg 53%
    07:00 +16°C° 0 mm 3 mps 762 mmHg 57%
    08:00 +15°C° 0 mm 2 mps 762 mmHg 61%
    09:00 +17°C° 0 mm 2 mps 762 mmHg 57%
    10:00 +19°C° 0 mm 3 mps 762 mmHg 52%
    11:00 +20°C° 0 mm 3 mps 762 mmHg 48%
    12:00 +21°C° 0 mm 3 mps 761 mmHg 48%
    13:00 +21°C° 0 mm 3 mps 761 mmHg 47%
    14:00 +22°C° 0 mm 3 mps 760 mmHg 46%
    15:00 +20°C° 0 mm 2 mps 761 mmHg 51%
    16:00 +19°C° 0 mm 2 mps 761 mmHg 56%
    17:00 +18°C° 0 mm 2 mps 761 mmHg 61%
    18:00 +17°C° 0 mm 2 mps 761 mmHg 61%
    19:00 +16°C° 0 mm 2 mps 762 mmHg 61%
    20:00 +14°C° 0 mm 3 mps 762 mmHg 61%
    21:00 +14°C° 0 mm 3 mps 762 mmHg 61%
    22:00 +14°C° 0 mm 3 mps 762 mmHg 61%
    23:00 +13°C° 0 mm 3 mps 762 mmHg 62%

    Day after tomorrow, 8 June, Monday

    Time Temperature Precipitation Wind Pressure Humidity
    00:00 +13°C° 0 mm 3 mps 762 mmHg 62%
    01:00 +13°C° 0 mm 3 mps 762 mmHg 62%
    02:00 +13°C° 0 mm 3 mps 761 mmHg 62%
    03:00 +12°C° 0 mm 3 mps 762 mmHg 62%
    04:00 +12°C° 0 mm 3 mps 762 mmHg 63%
    05:00 +12°C° 0 mm 3 mps 762 mmHg 63%
    06:00 +12°C° 0 mm 3 mps 762 mmHg 63%
    07:00 +12°C° 0 mm 3 mps 762 mmHg 64%
    08:00 +12°C° 0 mm 3 mps 762 mmHg 65%
    09:00 +14°C° 0 mm 4 mps 762 mmHg 60%
    10:00 +17°C° 0 mm 4 mps 762 mmHg 54%
    11:00 +19°C° 0 mm 4 mps 762 mmHg 49%
    12:00 +20°C° 0 mm 3 mps 762 mmHg 48%
    13:00 +21°C° 0 mm 3 mps 761 mmHg 46%
    14:00 +22°C° 0 mm 3 mps 761 mmHg 44%
    15:00 +20°C° 0 mm 2 mps 761 mmHg 53%
    16:00 +19°C° 0 mm 2 mps 761 mmHg 61%
    17:00 +17°C° 0 mm 2 mps 762 mmHg 69%
    18:00 +16°C° 0 mm 1 mps 762 mmHg 75%
    19:00 +15°C° 0 mm 1 mps 762 mmHg 80%
    20:00 +14°C° 0 mm 1 mps 762 mmHg 85%
    21:00 +14°C° 0 mm 1 mps 762 mmHg 86%
    22:00 +14°C° 0 mm 1 mps 762 mmHg 88%
    23:00 +14°C° 0 mm 1 mps 762 mmHg 89%

    9 June, Tuesday

    Time Temperature Precipitation Wind Pressure Humidity
    00:00 +14°C° 0 mm 1 mps 762 mmHg 88%
    01:00 +13°C° 0 mm 1 mps 762 mmHg 86%
    02:00 +13°C° 0 mm 2 mps 761 mmHg 85%
    03:00 +13°C° 0 mm 2 mps 761 mmHg 82%
    04:00 +12°C° 0 mm 2 mps 761 mmHg 79%
    05:00 +12°C° 0 mm 2 mps 761 mmHg 76%
    06:00 +12°C° 0 mm 2 mps 761 mmHg 74%
    07:00 +12°C° 0 mm 2 mps 761 mmHg 73%
    08:00 +11°C° 0 mm 3 mps 761 mmHg 72%
    09:00 +13°C° 0 mm 3 mps 761 mmHg 65%
    10:00 +16°C° 0 mm 3 mps 762 mmHg 59%
    11:00 +18°C° 0 mm 3 mps 762 mmHg 52%
    12:00 +19°C° 0 mm 3 mps 761 mmHg 49%
    13:00 +20°C° 0 mm 2 mps 760 mmHg 47%
    14:00 +21°C° 0 mm 2 mps 760 mmHg 44%
    15:00 +19°C° 0 mm 2 mps 760 mmHg 49%
    16:00 +19°C° 0 mm 1 mps 760 mmHg 55%
    17:00 +16°C° 0 mm 1 mps 760 mmHg 60%
    18:00 +16°C° 0 mm 1 mps 760 mmHg 62%
    19:00 +15°C° 0 mm 1 mps 761 mmHg 64%
    20:00 +13°C° 0 mm 0 mps 761 mmHg 66%
    21:00 +14°C° 0 mm 1 mps 761 mmHg 67%
    22:00 +14°C° 0 mm 1 mps 761 mmHg 68%
    23:00 +13°C° 0 mm 1 mps 760 mmHg 69%

    10 June, Wednesday

    Time Temperature Precipitation Wind Pressure Humidity
    00:00 +13°C° 0 mm 1 mps 760 mmHg 68%
    01:00 +13°C° 0 mm 1 mps 760 mmHg 67%
    02:00 +13°C° 0 mm 1 mps 760 mmHg 66%
    03:00 +12°C° 0 mm 1 mps 760 mmHg 67%
    04:00 +12°C° 0 mm 1 mps 760 mmHg 67%
    05:00 +11°C° 0 mm 1 mps 760 mmHg 67%
    06:00 +12°C° 0 mm 1 mps 760 mmHg 66%
    07:00 +12°C° 0 mm 1 mps 760 mmHg 65%
    08:00 +12°C° 0 mm 2 mps 760 mmHg 64%
    09:00 +14°C° 0 mm 2 mps 760 mmHg 58%
    10:00 +16°C° 0 mm 2 mps 760 mmHg 51%
    11:00 +19°C° 0 mm 2 mps 760 mmHg 45%
    12:00 +19°C° 0 mm 2 mps 759 mmHg 45%
    13:00 +20°C° 0 mm 2 mps 758 mmHg 44%
    14:00 +20°C° 0 mm 2 mps 757 mmHg 44%
    15:00 +19°C° 0 mm 2 mps 757 mmHg 48%
    16:00 +18°C° 0 mm 2 mps 757 mmHg 52%
    17:00 +17°C° 0 mm 2 mps 757 mmHg 56%
    18:00 +17°C° 0 mm 3 mps 757 mmHg 56%
    19:00 +16°C° 0 mm 3 mps 757 mmHg 56%
    20:00 +14°C° 0 mm 3 mps 757 mmHg 56%
    21:00 +14°C° 0 mm 3 mps 757 mmHg 56%
    22:00 +14°C° 0 mm 3 mps 756 mmHg 56%
    23:00 +14°C° 0 mm 3 mps 756 mmHg 55%

    11 June, Thursday

    Time Temperature Precipitation Wind Pressure Humidity
    00:00 +14°C° 0 mm 3 mps 756 mmHg 59%
    01:00 +13°C° 0 mm 3 mps 756 mmHg 63%
    02:00 +13°C° 0 mm 3 mps 755 mmHg 67%
    03:00 +13°C° 0 mm 3 mps 755 mmHg 67%
    04:00 +13°C° 0 mm 3 mps 755 mmHg 67%
    05:00 +14°C° 0 mm 3 mps 754 mmHg 68%
    06:00 +14°C° 0 mm 3 mps 754 mmHg 66%
    07:00 +14°C° 0 mm 3 mps 754 mmHg 65%
    08:00 +14°C° 0 mm 4 mps 754 mmHg 64%
    09:00 +15°C° 0 mm 4 mps 754 mmHg 63%
    10:00 +17°C° 0 mm 4 mps 753 mmHg 62%
    11:00 +17°C° 0 mm 4 mps 753 mmHg 61%
    12:00 +16°C° 0.5 mm 5 mps 752 mmHg 68%
    13:00 +16°C° 0.5 mm 6 mps 751 mmHg 74%
    14:00 +16°C° 0.5 mm 7 mps 750 mmHg 80%
    15:00 +16°C° 0.1 mm 6 mps 750 mmHg 81%
    16:00 +16°C° 0.1 mm 6 mps 750 mmHg 82%
    17:00 +17°C° 0.1 mm 5 mps 750 mmHg 82%
    18:00 +16°C° 0.1 mm 5 mps 749 mmHg 85%
    19:00 +15°C° 0.1 mm 6 mps 749 mmHg 88%
    20:00 +15°C° 0.1 mm 6 mps 749 mmHg 91%
    21:00 +15°C° 0 mm 6 mps 749 mmHg 91%
    22:00 +14°C° 0 mm 6 mps 749 mmHg 91%
    23:00 +14°C° 0 mm 6 mps 749 mmHg 92%
    Show more